This is the latest recevied weather packets stored in our database for station/object WX0ABE-13. If no packets are shown the sender has not sent any weather packets the latest 10 day(s).
| Time | Temp. | Humidity | Pressure | Rain* | Wind** | Luminosity | Snow |
|---|---|---|---|---|---|---|---|
| 1787691658 | 31.11° C | 39% | 1022.1 hPa | 0 mm | - | 584 W/m² | - |
| 1787691356 | 31.11° C | 39% | 1022.3 hPa | 0 mm | - | 588 W/m² | - |
| 1787691051 | 31.67° C | 38% | 1022.1 hPa | 0 mm | - | 291 W/m² | - |
| 1787690746 | 32.78° C | 36% | 1022.4 hPa | 0 mm | - | 589 W/m² | - |
| 1787690441 | 33.33° C | 38% | 1022.3 hPa | 0 mm | - | 598 W/m² | - |
| 1787690137 | 32.78° C | 37% | 1022.4 hPa | 0 mm | - | 612 W/m² | - |
| 1787689833 | 32.22° C | 39% | 1022.4 hPa | 0 mm | - | 629 W/m² | - |
| 1787689529 | 32.22° C | 39% | 1022.6 hPa | 0 mm | - | 647 W/m² | - |
| 1787689224 | 32.78° C | 37% | 1022.7 hPa | 0 mm | - | 674 W/m² | - |
| 1787688919 | 32.22° C | 40% | 1022.2 hPa | 0 mm | - | 522 W/m² | - |
| 1787688615 | 31.67° C | 38% | 1022.3 hPa | 0 mm | - | 610 W/m² | - |
| 1787688315 | 31.67° C | 40% | 1022.6 hPa | 0 mm | - | 694 W/m² | - |
| 1787688010 | 31.67° C | 40% | 1022.3 hPa | 0 mm | - | 661 W/m² | - |
| 1787687706 | 31.11° C | 42% | 1022.8 hPa | 0 mm | - | 654 W/m² | - |
| 1787687401 | 31.11° C | 44% | 1022.8 hPa | 0 mm | - | 667 W/m² | - |
| 1787687096 | 31.11° C | 39% | 1022.7 hPa | 0 mm | - | 681 W/m² | - |
| 1787686792 | 31.67° C | 38% | 1022.7 hPa | 0 mm | - | 689 W/m² | - |
| 1787686488 | 31.11° C | 40% | 1022.8 hPa | 0 mm | - | 700 W/m² | - |
| 1787686183 | 30° C | 41% | 1023 hPa | 0 mm | - | 730 W/m² | - |
| 1787685878 | 30° C | 42% | 1023.2 hPa | 0 mm | - | 436 W/m² | - |
| 1787685578 | 30.56° C | 39% | 1022.8 hPa | 0 mm | - | 390 W/m² | - |
| 1787685273 | 30.56° C | 41% | 1023 hPa | 0 mm | - | 753 W/m² | - |
| 1787684967 | 30.56° C | 40% | 1022.8 hPa | 0 mm | - | 706 W/m² | - |
| 1787684664 | 30° C | 42% | 1022.9 hPa | 0 mm | - | 703 W/m² | - |
| 1787684362 | 28.89° C | 41% | 1023 hPa | 0 mm | - | 703 W/m² | - |
* Rain latest hour (hover to see other rain measurements)
** Current wind speed in m/s (hover to see current wind gust speed)